[[{"header":{"parameterUnit":"m.s-1","parameterCategory":1,"la1":30.2991,"la2":30.254,"lo1":-89.0895,"lo2":-89.0444,"dy":0.0017,"dx":0.0017,"nx":28,"ny":28,"refTime":"2024-04-08T03:00:00:Z","depth":0,"parameterNumber":2,"parameterNumberName":"U-component_of_WINDS"},"data":[0,0,0,0,0,0,0,0,0,0,0,0,0,0,0,0,0,0,0,0,0,0,0,0,0,0,0,0,0,0,0,0,0,0,0,0,0,0,0,0,0,0,0,0,0,0,0,0,0,0,0,0,0,0,0,0,0,0,-1.9157,-1.9158,0,-1.9285,-1.9286,-1.9288,-1.9335,-1.9335,-1.9335,-1.9334,-1.9467,-1.9471,-1.9474,0,0,0,0,0,0,0,0,0,0,0,0,0,-1.8955,-1.8958,-1.9157,-1.9158,-1.916,-1.9285,-1.9286,-1.9288,-1.9335,-1.9335,-1.9334,-1.9334,-1.9465,-1.947,-1.9475,0,0,0,0,0,0,0,0,0,0,0,0,0,-1.9059,-1.896,-1.9157,-1.9199,-1.9204,-1.9284,-1.9287,-1.9289,-1.9336,-1.9335,-1.9334,-1.9334,-1.9464,-1.947,-1.9475,-1.9524,0,0,-1.9493,-1.9496,0,0,0,0,0,0,0,0,-1.9053,-1.9066,-1.9191,-1.9196,-1.9202,-1.9294,-1.9264,-1.9368,-1.9336,-1.9285,-1.9334,-1.9333,-1.941,-1.942,-1.9445,-1.9531,-1.9536,-1.9494,-1.9498,-1.95,-1.9502,0,0,0,0,0,0,0,-1.9046,-1.9061,-1.9208,-1.9193,-1.9199,-1.9212,-1.9226,-1.9284,-1.935,-1.929,-1.9294,-1.9308,-1.9413,-1.944,-1.9449,-1.9538,-1.9494,-1.9499,-1.9503,-1.9505,-1.967,-1.9671,0,0,0,0,0,0,-1.9031,-1.9055,-1.9204,-1.9211,-1.9124,-1.9216,-1.9231,-1.9265,-1.9349,-1.9361,-1.9308,-1.931,-1.943,-1.9442,-1.9454,-1.9516,-1.95,-1.9506,-1.9509,-1.9669,-1.967,-1.9671,0,0,0,0,0,0,-1.9027,-1.9044,-1.9198,-1.9134,-1.9155,-1.922,-1.9257,-1.9268,-1.9295,-1.9363,-1.9375,-1.9324,-1.943,-1.9445,-1.9506,-1.9522,-1.9508,-1.9513,-1.9668,-1.967,-1.9671,-1.9642,0,0,0,0,0,0,-1.9021,-1.9042,-1.9061,-1.9134,-1.9158,-1.9248,-1.9258,-1.927,-1.9304,-1.9307,-1.9381,-1.9392,-1.9431,-1.9497,-1.9512,-1.953,-1.9518,-1.9667,-1.9669,-1.967,-1.9642,-1.9642,-1.9642,0,0,0,0,0,-1.9013,-1.9048,-1.9061,-1.9079,-1.9183,-1.9249,-1.9263,-1.9305,-1.9305,-1.9325,-1.9369,-1.939,-1.9518,-1.9503,-1.952,-1.954,-1.9666,-1.9668,-1.967,-1.9642,-1.9642,-1.9642,0,0,0,0,0,0,-1.8975,-1.9058,-1.9074,-1.9133,-1.9184,-1.9257,-1.9283,-1.9304,-1.9356,-1.9357,-1.9408,-1.9424,-1.9481,-1.9517,-1.9499,-1.9592,-1.9594,-1.9599,-1.9566,-1.9567,-1.9567,-1.9557,-1.9523,0,0,0,0,0,-1.8973,-1.902,-1.909,-1.9136,-1.916,-1.9217,-1.9247,-1.9276,-1.933,-1.9352,-1.9401,-1.9453,-1.9505,-1.9538,-1.959,-1.9648,-1.9664,-1.967,-1.967,-1.967,-1.9673,-1.9707,-1.971,-1.9678,-1.9678,-1.9678,0,0,-1.8971,-1.9022,-1.9048,-1.9129,-1.9172,-1.9219,-1.9234,-1.9284,-1.9319,-1.936,-1.942,-1.9457,-1.9519,-1.9579,-1.9608,-1.961,-1.9686,-1.9672,-1.9671,-1.9676,-1.9709,-1.9712,-1.9715,-1.9679,-1.9679,-1.9679,0,0,-1.8989,-1.9033,-1.9075,-1.9117,-1.9181,-1.9219,-1.9229,-1.9299,-1.9325,-1.9387,-1.9418,-1.9462,-1.955,-1.9593,-1.9626,-1.9662,-1.9683,-1.9677,-1.9678,-1.971,-1.9713,-1.9715,-1.9728,-1.9732,-1.9681,-1.9681,-1.9681,0,-1.8978,-1.905,-1.9095,-1.9142,-1.9177,-1.9216,-1.9259,-1.9298,-1.9376,-1.9399,-1.9401,-1.9513,-1.9558,-1.9628,-1.9636,-1.9662,-1.9676,-1.9669,-1.9709,-1.9712,-1.9715,-1.9727,-1.9732,-1.968,-1.968,-1.968,-1.968,0,-1.9033,-1.9082,-1.9109,-1.9182,-1.922,-1.9266,-1.9318,-1.9351,-1.9377,-1.9415,-1.9477,-1.9532,-1.9595,-1.9614,-1.964,-1.9688,-1.9688,-1.9699,-1.9702,-1.9716,-1.9728,-1.9734,-1.9678,-1.9679,-1.9679,-1.9679,0,0,-1.903,-1.9128,-1.9137,-1.917,-1.9244,-1.9283,-1.9331,-1.9392,-1.942,-1.9472,-1.9514,-1.9588,-1.9599,-1.9636,-1.9668,-1.9696,-1.972,-1.9704,-1.9706,-1.9704,-1.9777,-1.9767,-1.9772,-1.9735,-1.9736,-1.9737,-1.9771,0,-1.9058,-1.9144,-1.9186,-1.9254,-1.93,-1.9337,-1.9379,-1.9429,-1.9465,-1.9511,-1.9552,-1.9603,-1.9614,-1.9637,-1.9666,-1.9711,-1.9735,-1.9709,-1.9774,-1.9776,-1.9756,-1.9779,-1.9769,-1.9799,-1.9777,-1.9777,-1.9778,0,-1.9102,-1.9154,-1.9226,-1.9294,-1.9315,-1.9351,-1.9411,-1.9454,-1.9511,-1.9536,-1.9578,-1.9609,-1.9661,-1.9661,-1.9733,-1.9714,-1.9744,-1.977,-1.9772,-1.9779,-1.9777,-1.9786,-1.9809,-1.9813,-1.9786,-1.9786,-1.9785,0,-1.9093,-1.918,-1.9234,-1.9262,-1.9343,-1.9368,-1.9403,-1.946,-1.9494,-1.9547,-1.957,-1.9628,-1.966,-1.9705,-1.975,-1.9746,-1.9819,-1.9822,-1.9841,-1.984,-1.9854,-1.9852,-1.9881,-1.9874,-1.9874,-1.9873,-1.9873,0,-1.9119,-1.9162,-1.9231,-1.9264,-1.9313,-1.9362,-1.9409,-1.9447,-1.9498,-1.9539,-1.9576,-1.9615,-1.9673,-1.9719,-1.9755,-1.981,-1.9824,-1.9846,-1.9855,-1.9842,-1.9839,-1.9862,-1.9861,-1.9875,-1.9874,-1.9874,-1.9874,0,-1.9116,-1.9164,-1.9226,-1.9298,-1.9317,-1.9349,-1.9411,-1.9445,-1.9484,-1.9536,-1.9552,-1.9613,-1.9669,-1.9719,-1.9794,-1.9818,-1.9874,-1.9886,-1.9854,-1.9859,-1.9875,-1.9872,-1.9919,-1.9927,-1.9914,-1.9914,-1.9914,0,-1.913,-1.9163,-1.9238,-1.9268,-1.9302,-1.9351,-1.9386,-1.9435,-1.9471,-1.9539,-1.9565,-1.9624,-1.9673,-1.9762,-1.9813,-1.9871,-1.9884,-1.9896,-1.9893,-1.9879,-1.9883,-1.9881,-1.9884,-1.9895,-1.9895,-1.9895,-1.9895,0,-1.9148,-1.917,-1.9219,-1.9277,-1.9317,-1.9365,-1.9414,-1.9437,-1.9496,-1.9534,-1.9591,-1.963,-1.9706,-1.9764,-1.9827,-1.9864,-1.989,-1.9896,-1.9903,-1.989,-1.9871,-1.9881,-1.9853,-1.9895,-1.9895,-1.9895,-1.9895,-1.9895,-1.9154,-1.9185,-1.9243,-1.9296,-1.9338,-1.9383,-1.9418,-1.9461,-1.951,-1.9575,-1.9602,-1.9661,-1.9718,-1.9806,-1.9843,-1.989,-1.9894,-1.9905,-1.9908,-1.9909,-1.9907,-1.9864,-1.9902,-1.9902,-1.9902,-1.9902,-1.9902,0,-1.9174,-1.9213,-1.9261,-1.9328,-1.937,-1.939,-1.9445,-1.9479,-1.953,-1.9582,-1.9629,-1.9696,-1.9753,-1.9809,-1.9868,-1.9895,-1.9908,-1.9909,-1.9908,-1.9916,-1.99,-1.9887,-1.9898,-1.9898,-1.9898,-1.9898,-1.9898,-1.9898,-1.9189,-1.9243,-1.9272,-1.9348,-1.9387,-1.9444,-1.9474,-1.9516,-1.9557,-1.9629,-1.9676,-1.9712,-1.9765,-1.9829,-1.9882,-1.9898,-1.9918,-1.9915,-1.9933,-1.9917,-1.9917,-1.9917,-1.9905,-1.9919,-1.9919,-1.9946,-1.9946,-1.9946]},{"header":{"parameterUnit":"m.s-1","parameterCategory":1,"la1":30.2991,"la2":30.254,"lo1":-89.0895,"lo2":-89.0444,"dy":0.0017,"dx":0.0017,"nx":28,"ny":28,"refTime":"2024-04-08T03:00:00:Z","depth":0,"parameterNumber":3,"parameterNumberName":"V-component_of_WINDS"},"data":[0,0,0,0,0,0,0,0,0,0,0,0,0,0,0,0,0,0,0,0,0,0,0,0,0,0,0,0,0,0,0,0,0,0,0,0,0,0,0,0,0,0,0,0,0,0,0,0,0,0,0,0,0,0,0,0,0,0,3.2095,3.2096,0,3.2231,3.2232,3.2234,3.2252,3.225,3.2249,3.2248,3.2386,3.2391,3.2396,0,0,0,0,0,0,0,0,0,0,0,0,0,3.185,3.1855,3.2095,3.2097,3.2098,3.2231,3.2232,3.2234,3.2252,3.225,3.2249,3.2247,3.2384,3.239,3.2396,0,0,0,0,0,0,0,0,0,0,0,0,0,3.1968,3.1856,3.2095,3.2123,3.2127,3.223,3.2233,3.2235,3.2252,3.225,3.2248,3.2246,3.2383,3.239,3.2397,3.2481,0,0,3.2419,3.2423,0,0,0,0,0,0,0,0,3.1962,3.1977,3.2117,3.2121,3.2126,3.2222,3.2197,3.2317,3.2253,3.2205,3.2248,3.2245,3.2333,3.2344,3.2374,3.2488,3.2494,3.242,3.2424,3.2428,3.243,0,0,0,0,0,0,0,3.1953,3.1971,3.2149,3.2119,3.2124,3.2129,3.2143,3.222,3.2278,3.2209,3.221,3.2226,3.2335,3.2367,3.2377,3.2496,3.242,3.2426,3.2431,3.2434,3.2685,3.2687,0,0,0,0,0,0,3.194,3.1965,3.2144,3.2153,3.2037,3.2135,3.2151,3.2193,3.2277,3.2288,3.2228,3.2226,3.2355,3.2369,3.2382,3.2487,3.2428,3.2434,3.2439,3.2683,3.2686,3.2688,0,0,0,0,0,0,3.1935,3.1956,3.2139,3.2059,3.2083,3.2141,3.2188,3.2197,3.2229,3.2292,3.2302,3.225,3.2354,3.2372,3.2457,3.2492,3.2438,3.2444,3.268,3.2684,3.2687,3.2696,0,0,0,0,0,0,3.1928,3.1954,3.1987,3.206,3.2087,3.2211,3.219,3.2201,3.2242,3.2241,3.2315,3.2325,3.2354,3.2446,3.2464,3.2501,3.245,3.2677,3.2682,3.2686,3.2693,3.2699,3.2705,0,0,0,0,0,3.1919,3.1984,3.1988,3.201,3.2129,3.2213,3.2229,3.2261,3.2244,3.2278,3.2318,3.2323,3.2485,3.2454,3.2475,3.2515,3.2675,3.268,3.2685,3.269,3.2698,3.2705,0,0,0,0,0,0,3.1913,3.1994,3.2,3.209,3.2145,3.2216,3.2259,3.2268,3.2328,3.2325,3.2362,3.2379,3.2462,3.2497,3.2461,3.2601,3.2579,3.2588,3.2575,3.2583,3.2589,3.2579,3.2456,0,0,0,0,0,3.1922,3.1983,3.2051,3.2124,3.2151,3.22,3.2238,3.2258,3.2316,3.2339,3.2385,3.2441,3.2505,3.2546,3.2607,3.2698,3.2714,3.2735,3.2741,3.2746,3.2754,3.2804,3.2814,3.2705,3.2705,3.2705,0,0,3.1942,3.1993,3.203,3.2124,3.2169,3.2231,3.2219,3.2286,3.2333,3.2349,3.2432,3.2468,3.2532,3.262,3.2661,3.2652,3.2788,3.2752,3.2756,3.2761,3.281,3.2821,3.283,3.2708,3.2708,3.2707,0,0,3.201,3.2055,3.2121,3.2166,3.2234,3.2266,3.2282,3.2352,3.2377,3.246,3.2473,3.2529,3.2638,3.2684,3.2721,3.2806,3.2813,3.2825,3.2857,3.2905,3.2914,3.2922,3.2952,3.2963,3.2833,3.2833,3.2833,0,3.2026,3.2121,3.2154,3.222,3.2261,3.2279,3.2346,3.2388,3.2472,3.25,3.2488,3.2625,3.267,3.2768,3.2789,3.2819,3.2838,3.2817,3.291,3.2918,3.2926,3.2955,3.2967,3.2834,3.2834,3.2833,3.2833,0,3.2137,3.2203,3.2248,3.2329,3.2375,3.2442,3.2485,3.2527,3.2543,3.2577,3.2662,3.2716,3.2789,3.2814,3.283,3.2915,3.2907,3.2902,3.2881,3.2937,3.2965,3.2977,3.2835,3.2835,3.2835,3.2834,0,0,3.2205,3.2304,3.232,3.2357,3.2433,3.2484,3.2552,3.2623,3.2659,3.2717,3.2774,3.2866,3.2862,3.2904,3.2925,3.2968,3.3032,3.2958,3.296,3.297,3.3129,3.3133,3.3145,3.3037,3.3039,3.3041,3.3124,0,3.2282,3.2403,3.2434,3.2537,3.2598,3.2615,3.2674,3.2726,3.2759,3.2816,3.2852,3.2917,3.2906,3.2932,3.2975,3.3015,3.3065,3.301,3.3091,3.3093,3.3074,3.316,3.3164,3.3239,3.3135,3.3137,3.3138,0,3.2388,3.2448,3.2556,3.2624,3.2651,3.2703,3.2772,3.2826,3.2886,3.2907,3.2954,3.2972,3.3042,3.3017,3.3114,3.3076,3.3111,3.3136,3.314,3.3149,3.3119,3.3171,3.3264,3.3276,3.3156,3.3155,3.3153,0,3.2427,3.2535,3.2614,3.2645,3.2726,3.2762,3.2798,3.2856,3.2897,3.2957,3.2984,3.3051,3.3088,3.3139,3.3174,3.3152,3.3269,3.3246,3.3288,3.3287,3.3312,3.331,3.3412,3.3334,3.3334,3.3334,3.3333,0,3.251,3.2575,3.2632,3.2681,3.2755,3.2791,3.2863,3.2899,3.2951,3.3006,3.3025,3.3077,3.312,3.3178,3.3205,3.3282,3.3298,3.3317,3.3324,3.3316,3.3313,3.3339,3.3335,3.3337,3.3336,3.3335,3.3335,0,3.2566,3.2607,3.2694,3.2764,3.2783,3.2834,3.2894,3.2942,3.2975,3.3046,3.3064,3.3117,3.3186,3.3225,3.3312,3.3331,3.3416,3.342,3.3396,3.3399,3.3438,3.3434,3.3561,3.3579,3.3489,3.3489,3.349,0,3.2616,3.2667,3.2743,3.2781,3.2817,3.288,3.2922,3.2959,3.3002,3.3074,3.3113,3.3183,3.3241,3.335,3.3396,3.3463,3.3469,3.3508,3.3479,3.3469,3.347,3.3466,3.3472,3.3513,3.3514,3.3515,3.3515,0,3.2701,3.2719,3.2779,3.2846,3.2896,3.2951,3.3005,3.3036,3.3082,3.3129,3.32,3.3245,3.3334,3.3403,3.3473,3.351,3.3521,3.3524,3.3538,3.353,3.3514,3.3524,3.341,3.3521,3.3521,3.352,3.352,3.352,3.2756,3.2803,3.2863,3.2929,3.2974,3.3024,3.3073,3.3112,3.3172,3.3247,3.3265,3.334,3.3399,3.3494,3.3532,3.3591,3.3584,3.3603,3.3608,3.3612,3.3613,3.3504,3.3604,3.3603,3.3603,3.3603,3.3603,0,3.2843,3.2882,3.2943,3.3018,3.3071,3.3076,3.3137,3.318,3.3245,3.3299,3.3356,3.3437,3.3505,3.3556,3.3625,3.3662,3.3668,3.3678,3.3676,3.3685,3.3616,3.3597,3.3672,3.3672,3.3672,3.3672,3.3672,3.3672,3.2893,3.2972,3.2997,3.3098,3.3137,3.321,3.3244,3.3291,3.3334,3.3424,3.348,3.3513,3.3566,3.3639,3.3701,3.3714,3.3739,3.3748,3.3762,3.3697,3.3689,3.3682,3.3665,3.3753,3.3753,3.3826,3.3827,3.3828]}]]